COSMOS 2491 DEB, 57550

Orbit data source: Space-Track

COSMOS 2491 DEB, 57550 is space debris in LEO originally from a launch on Wed, 25 Dec 2013 UTC launched from the Plesetsk Missile And Space Complex (PKMTR). Debris objects in space refer to the collection of defunct objects orbiting the Earth. Examples of debris include non-operational satellites, rocket bodies, and fragments generated from explosions, collisions, or faulty payload assembly.

Loading next visibility...
Identifier
57550, 2013-076AM
Orbit
LEO
Country
Flag of CISCIS
Related business
Manufacturer
TsNIIKhM
Mission
Spacecraft
Bus & Motor
Unknown
Mass
Unknown
Launch date (UTC)
2013-12-25 (12 years ago)
Launch vehicle
Unknown
Launch site
Plesetsk Missile And Space Complex (PKMTR)
Object type
Payload
Rocket body
Debris
Shape & HBR
Unknown shape, 0.1 m
Radar Cross Section
Small (<0.1 m²)

Expand to show TLE details & history
Last TLE update: 1 day ago

TLE from 1 day ago
0 COSMOS 2491 DEB
1 57550U 13076AM  25315.05187930  .00002583  00000-0  11665-1 0  9996
2 57550  82.4502 242.2042 0162894 272.1474  86.0979 12.73840803116304
Epoch: 2025-11-11T01:14Z
TLE epoch observation values (Epoch: 2025-11-11T01:14:42.371Z)
Latitude
0.00001°
Longitude
173.08368°
Altitude
1,362.54 km
Speed
7.18 km/s
True Right ascension
16h 08m 49s
True Declination
0° 00' 00"
Sunlit
Object was in daylight at epoch
Visualization orbit readout
Latitude
Unknown
Longitude
Unknown
Altitude
Unknown
Speed
Unknown
Apparent Right ascension
Unknown
Apparent Declination
Unknown
Sunlit
N/A
Visualization observer readout
Local Sidereal Time
01:04:19
Azimuth
Unknown
Elevation
Unknown
Doppler factor
Unknown
Orbital elements
Apogee altitude
1,489.751 km
Perigee altitude
1,237.533 km
Semi-major axis
7,741.779 km
Eccentricity
0.01629
Inclination
82.4502°
RAAN
242.2042°
Arg. of periapsis
272.1474°
True anomaly
87.96246°
Mean anomaly
86.0979°
Eccentric anomaly
87.02996°
Mean motion
3.18627 °/min
Orbital period
112.98 mins
BSTAR
0.011665
Loading maneuver chart data...
Computing Atmospheric mass density...
Loading historical data...
Loading historical data...
Loading historical data...
Loading historical data...
Loading historical data...
Loading historical data...
Loading historical data...

Documentation

Showing up to 5 results
|